Location: The Saddle
(36.8333°N, 80.3417°W)
Time: 17:08:45
(UTC-04:00)

BlueWalker 3 - Pass Details

Date: 22 October 2024
Orbit: 471 x 482 km, 53.2° (Epoch: 02 November)

Event Time Altitude Azimuth Distance (km) Brightness Sun altitude
Exits shadow 05:52:58 23° 357° (N) 1,030 3.5 -21.3°
Maximum altitude 05:54:17 30° 35° (NE) 863 3.4 -21.0°
Drops below altitude 10° 05:57:34 10° 99° (E) 1,628 5.7 -20.3°
Sets 05:59:54 0° 110° (ESE) 2,503 6.7 -19.9°
